DIRECTV 11

Last updated on Wed May 14 2025 00:02:41 GMT+0000 (Coordinated Universal Time)

1 32729U 08013A 25133.58127293 -.00000109 00000+0 00000+0 0 9995 2 32729 0.0056 31.5695 0000393 337.7948 332.2927 1.00273437 41584
UTC large
Height (km)
Speed (km/s)
/
Latitude / Longitude
Inclination (degrees)
Orbital Period (minutes)
Azimuth
Elevation
Range (km)
Doppler Factor

Next 0 passes for location: London (51.5072 / 0.1276)

Sorry there are no passes over London.